Simultaneous Nadir Overpasses (SNOs) Predictions

Prediction of SNOs between LANDSAT-8 and METOP-A Satellite Orbit:

Table of predicted SNOs for the next 14.0 days since TLE Epoch: 9/14/2019
Index Date (LANDSAT-8) Time (LANDSAT-8) Lat,Lon (LANDSAT-8) SZA (LANDSAT-8 ) Date (METOP-A) Time (METOP-A) Lat,Lon (METOP-A) SZA (METOP-A ) Distance(km) Time Diff (sec)
1 09/14/2019 19:34:29 81.48, -66.99 80.98 09/14/2019 19:33:26 81.48, -66.95 80.95 0.77 63
2 09/14/2019 20:23:56 -81.48, 100.61 99.01 09/14/2019 20:24:06 -81.47, 100.77 98.99 2.62 10
3 09/17/2019 15:08:46 81.48, -0.62 82.08 09/17/2019 15:07:51 81.48, -0.80 82.03 3.00 55
4 09/17/2019 15:58:13 -81.48, 167.01 97.91 09/17/2019 15:58:31 -81.47, 166.94 97.91 1.10 18
5 09/20/2019 10:43:02 81.48, 65.83 83.19 09/20/2019 10:42:14 81.48, 65.73 83.16 1.60 48
6 09/20/2019 11:32:29 -81.48,-126.52 96.80 09/20/2019 11:32:54 -81.47,-126.50 96.78 0.53 25
7 09/23/2019 06:17:19 81.48, 132.36 84.32 09/23/2019 06:16:38 81.47, 132.26 84.29 1.87 41
8 09/23/2019 07:06:47 -81.47, -60.36 95.72 09/23/2019 07:07:19 -81.47, -60.36 95.70 1.00 32
9 09/26/2019 01:51:37 81.47,-161.42 85.41 09/26/2019 01:51:02 81.47,-161.23 85.42 3.12 35




NCC Satellite Simultaneous Nadir Overpasses (SNOs) Prediction Service
